Карточка аэропорта URSS

Внимание!
Информация на этой странице в стадии наполнения.
Если вы не увидели какой-то информации, или заметили неточность - пожалуйста сообщите нам!
Спасибо!
Команда RU-STAFF
Название аэропортаСочи
Название аэропорта (англ.)Sochi
Превышение89 ft. (27.1 m.)
Координаты43°26.634', 39°56.55'
Высота перехода13000 ft
Эшелон переходаQNH>=977hPa: FL150; QNH<977hPa: FL160
Коды ответчика1060-1077
Зона ОрВДРостов-на-Дону РПИ (URRV)
Данные METARURSS 291230Z 26004MPS 9999 NSC 11/03 Q1025 R02/010070 R06/010070 NOSIG RMK R06/29004G07MPS QFE768
Проноз погоды (TAF)URSS 291055Z 2912/0112 28004G09MPS 9999 NSC BECMG 2916/2917 04006MPS FEW010 TEMPO 2918/0107 BKN006 BECMG 0107/0109 23003G08MPS NSC
NOTAMshow/hide NOTAM
AWOS   TABLE

Информация о ВПП

ВПП Длина ВПП (м.) Покрытие Курс ВПП Частота ILS
242890Цементобетон238 
202500Цементобетон202 
022500Цементобетон22110.5
062890Цементобетон58111.1

Диспетчерские позиции

Позывной Наименование органа УВД Частота
URSS_GNDСочи-Руление119.000
URSS_FM1119.000
URSS_R_APPСочи-Круг119.700
URSS_TWRСочи-Старт121.200
URSS_APPСочи-Подход124.600
URSS_DELСочи-Деливери132.700



Спутниковое изображение